EW3326 Weather Reports


time (UTC)temp
C
wind
direction
speed
KPH
gust
KPH
rain 1hr
cm
rain 24hr
cm
rain mn
cm
humidity
%
barometer
mb
20260505023015 13 204 1.6 9.7 0.00 0.00 0.00 59 1009.1
20260505021513 13 161 1.6 6.4 0.00 0.00 0.00 58 1009.2
20260505020017 13 198 1.6 6.4 0.00 0.00 0.00 56 1009.1
20260505014512 14 190 1.6 6.4 0.00 0.00 0.00 55 1009.0
20260505013016 14 199 1.6 9.7 0.00 0.00 0.00 54 1008.9
20260505011511 15 202 1.6 4.8 0.00 0.00 0.00 53 1008.7
20260505010011 15 179 1.6 6.4 0.00 0.00 0.00 51 1008.5
20260505004510 15 224 1.6 6.4 0.00 0.00 0.00 50 1008.1
20260505003009 16 229 1.6 6.4 0.00 0.00 0.00 49 1007.8
20260505001509 16 217 6.4 11.3 0.00 0.00 0.00 47 1007.3
20260505000011 16 304 1.6 9.7 0.00 0.00 0.00 47 1007.0
20260504234508 17 203 4.8 9.7 0.00 0.00 0.00 45 1006.7
20260504233007 17 203 3.2 12.9 0.00 0.00 0.00 45 1006.6
20260504231507 18 150 4.8 16.1 0.00 0.00 0.00 43 1006.4
20260504230012 18 211 3.2 12.9 0.00 0.00 0.00 40 1006.1
20260504224505 19 169 4.8 11.3 0.00 0.00 0.00 38 1005.8
20260504223005 20 212 6.4 14.5 0.00 0.00 0.00 36 1005.6
20260504221505 21 219 3.2 9.7 0.00 0.00 0.00 35 1005.6
20260504220004 21 200 4.8 14.5 0.00 0.00 0.00 32 1005.5
20260504214503 21 205 3.2 11.3 0.00 0.00 0.00 30 1005.5
20260504213009 21 207 4.8 9.7 0.00 0.00 0.00 30 1005.4
20260504211506 22 231 3.2 17.7 0.00 0.00 0.00 29 1005.4
20260504210002 21 217 6.4 19.3 0.00 0.00 0.00 29 1005.4
20260504204500 22 171 8.0 16.1 0.00 0.00 0.00 29 1005.4
20260504203122 22 196 3.2 12.9 0.00 0.00 0.00 29 1005.4
20260504201559 21 228 6.4 14.5 0.00 0.00 0.00 30 1005.5
20260504200059 22 205 9.7 17.7 0.00 0.00 0.00 28 1005.5
20260504194606 22 218 8.0 22.5 0.00 0.00 0.00 27 1005.7
20260504193110 22 198 6.4 14.5 0.00 0.00 0.00 28 1005.7
20260504191556 21 179 8.0 19.3 0.00 0.00 0.00 27 1005.7
20260504190114 22 193 4.8 12.9 0.00 0.00 0.00 26 1005.8
20260504184600 22 200 3.2 12.9 0.00 0.00 0.00 28 1005.9
20260504183051 22 190 4.8 19.3 0.00 0.00 0.00 29 1006.0
20260504181548 21 187 3.2 16.1 0.00 0.00 0.00 29 1006.2
20260504180049 21 218 6.4 19.3 0.00 0.00 0.00 29 1006.3
20260504174546 21 224 6.4 14.5 0.00 0.00 0.00 30 1006.5
20260504173048 20 304 4.8 14.5 0.00 0.00 0.00 29 1006.6
20260504171541 20 154 8.0 17.7 0.00 0.00 0.00 29 1006.6
20260504081513 7 205 1.6 3.2 0.00 0.08 0.00 58 1009.3
20260504060105 6 214 0.0 1.6 0.00 0.08 0.00 62 1009.2
20260504044558 4 226 0.0 1.6 0.00 0.08 0.00 68 1009.3
20260504043044 3 264 0.0 1.6 0.00 0.08 0.00 68 1009.2
20260504041539 3 264 0.0 0.0 0.00 0.08 0.00 69 1009.1
20260504040036 2 264 0.0 0.0 0.00 0.08 0.00 69 1009.0
20260504034540 2 264 0.0 0.0 0.00 0.08 0.08 68 1008.9
20260504033046 3 264 0.0 0.0 0.00 0.08 0.08 67 1008.7
20260504031533 3 264 0.0 0.0 0.00 0.08 0.08 65 1008.7
20260504030029 3 264 0.0 0.0 0.00 0.08 0.08 64 1008.7
20260504024526 3 264 0.0 0.0 0.00 0.08 0.08 64 1008.6